User: anonymous   Login
Location: Newark
(5.8900°S, 42.6378°W)
Time: 16:14:57
(UTC+00:00)
Language:

SR - Orbit

View from above orbital plane
View from above orbital plane
View from above satellite
View from above satellite

Ground track
Ground track

The orbit data is extracted from the following two-line orbital elements,

1    46U 60007B   19296.51785391  .00000024  00000-0  27720-4 0  9997
2    46  66.6905 329.4293 0216099 307.2552  50.9015 14.49251410104621
Epoch (UTC): 23 October 2019 12:25:42
Eccentricity: 0.0216099
inclination: 66.6905°
perigee height: 574 km
apogee height: 881 km
right ascension of ascending node: 329.4293°
argument of perigee: 307.2552°
revolutions per day: 14.49251410
mean anomaly at epoch: 50.9015°
orbit number at epoch: 10462

The dashed part of the orbit path shows where the satellite is in the earth's shadow,  

DLR